CW4221 Weather Reports


Display with metric or nautical units.
time (UTC)temp
F
wind
direction
speed
MPH
gust
MPH
rain 1hr
in
rain 24hr
in
rain mn
in
humidity
%
barometer
mb
20260831023815 82 181 1.0 4.0 0.00 0.00 0.00 56 1016.7
20260831023331 83 165 1.0 4.0 0.00 0.00 0.00 55 1016.7
20260831022826 83 180 1.0 5.0 0.00 0.00 0.00 55 1016.6
20260831022326 83 76 1.0 4.0 0.00 0.00 0.00 54 1016.6
20260831021822 83 218 1.0 6.0 0.00 0.00 0.00 54 1016.6
20260831021319 83 139 2.0 5.0 0.00 0.00 0.00 53 1016.4
20260831020816 83 183 2.0 6.0 0.00 0.00 0.00 53 1016.4
20260831020313 83 223 2.0 5.0 0.00 0.00 0.00 53 1016.3
20260831015809 83 197 1.0 3.0 0.00 0.00 0.00 54 1016.3
20260831015324 83 223 0.0 3.0 0.00 0.00 0.00 54 1016.2
20260831014825 83 236 1.0 2.0 0.00 0.00 0.00 54 1016.1
20260831014320 83 226 1.0 6.0 0.00 0.00 0.00 54 1016.0
20260831013816 83 224 1.0 6.0 0.00 0.00 0.00 54 1015.9
20260831012822 83 141 1.0 3.0 0.00 0.00 0.00 55 1015.8
20260831012319 82 135 0.0 3.0 0.00 0.00 0.00 57 1015.7
20260831011836 82 198 0.0 2.0 0.00 0.00 0.00 57 1015.6
20260831011311 82 198 1.0 2.0 0.00 0.00 0.00 57 1015.5
20260831010827 83 155 0.0 3.0 0.00 0.00 0.00 58 1015.5
20260831010323 83 126 1.0 3.0 0.00 0.00 0.00 58 1015.5
20260831005822 83 176 0.0 2.0 0.00 0.00 0.00 58 1015.5
20260831005338 83 113 0.0 2.0 0.00 0.00 0.00 59 1015.4
20260831004814 83 128 1.0 2.0 0.00 0.00 0.00 59 1015.5
20260831004311 84 120 0.0 2.0 0.00 0.00 0.00 58 1015.5
20260831003827 84 115 1.0 2.0 0.00 0.00 0.00 58 1015.5
20260831003323 84 117 1.0 2.0 0.00 0.00 0.00 58 1015.5
20260831002817 84 91 0.0 2.0 0.00 0.00 0.00 58 1015.6
20260831002311 85 90 0.0 2.0 0.00 0.00 0.00 59 1015.6
20260831001812 85 90 0.0 2.0 0.00 0.00 0.00 57 1015.6
20260831001349 86 121 0.0 2.0 0.00 0.00 0.00 57 1015.7
20260831000825 86 121 0.0 2.0 0.00 0.00 0.00 57 1015.7
20260831000321 86 121 1.0 2.0 0.00 0.00 0.00 57 1015.8
20260830235818 86 107 0.0 2.0 0.00 0.00 0.00 57 1015.8
20260830235315 86 107 0.0 2.0 0.00 0.00 0.00 57 1015.8
20260830234831 86 101 0.0 2.0 0.00 0.00 0.00 57 1015.9
20260830234346 86 101 0.0 2.0 0.00 0.00 0.00 56 1015.9
20260830233821 87 96 0.0 2.0 0.00 0.00 0.00 56 1015.9
20260830233321 87 96 0.0 2.0 0.00 0.00 0.00 54 1015.9
20260830232836 87 96 0.0 2.0 0.00 0.00 0.00 53 1015.9
20260830232311 88 96 0.0 2.0 0.00 0.00 0.00 52 1015.8
20260830231827 88 103 1.0 2.0 0.00 0.00 0.00 53 1015.9
20260830231323 89 103 1.0 2.0 0.00 0.00 0.00 51 1015.9
20260830230839 89 102 0.0 2.0 0.00 0.00 0.00 50 1015.8
20260830230334 89 102 1.0 2.0 0.00 0.00 0.00 50 1015.9
20260830225828 90 102 1.0 3.0 0.00 0.00 0.00 49 1015.8
20260830225323 90 106 1.0 3.0 0.00 0.00 0.00 48 1015.8
20260830224824 91 109 0.0 3.0 0.00 0.00 0.00 47 1015.8
20260830224320 91 122 1.0 3.0 0.00 0.00 0.00 46 1015.8
20260830223817 92 106 0.0 4.0 0.00 0.00 0.00 46 1015.7
20260830223313 92 123 2.0 4.0 0.00 0.00 0.00 45 1015.7
20260830222829 93 165 1.0 6.0 0.00 0.00 0.00 45 1015.7
20260830222325 93 92 1.0 7.0 0.00 0.00 0.00 44 1015.7
20260830221820 93 121 2.0 7.0 0.00 0.00 0.00 42 1015.8
20260830221316 93 66 1.0 3.0 0.00 0.00 0.00 43 1015.8
20260830220815 94 107 1.0 3.0 0.00 0.00 0.00 45 1015.9
20260830220311 94 105 1.0 3.0 0.00 0.00 0.00 45 1015.9
20260830215847 93 134 1.0 3.0 0.00 0.00 0.00 45 1015.9
20260830215322 93 140 1.0 4.0 0.00 0.00 0.00 46 1015.9
20260830214839 93 154 1.0 4.0 0.00 0.00 0.00 46 1016.0
20260830214314 92 211 1.0 7.0 0.00 0.00 0.00 45 1016.0
20260830213829 93 165 3.0 7.0 0.00 0.00 0.00 43 1016.1
20260830213325 93 226 2.0 6.0 0.00 0.00 0.00 43 1016.0
20260830212825 93 163 2.0 6.0 0.00 0.00 0.00 41 1016.1
20260830212343 94 187 3.0 7.0 0.00 0.00 0.00 41 1016.1
20260830211819 95 84 3.0 7.0 0.00 0.00 0.00 42 1016.1
20260830211315 95 228 3.0 7.0 0.00 0.00 0.00 42 1016.0
20260830210811 95 157 2.0 7.0 0.00 0.00 0.00 41 1016.2
20260830210327 95 108 2.0 7.0 0.00 0.00 0.00 41 1016.3
20260830205822 94 207 1.0 4.0 0.00 0.00 0.00 43 1016.3
20260830205318 93 167 3.0 4.0 0.00 0.00 0.00 41 1016.2
20260830204838 94 94 2.0 5.0 0.00 0.00 0.00 41 1016.3
20260830204312 94 166 3.0 9.0 0.00 0.00 0.00 42 1016.4
20260830203828 94 150 4.0 9.0 0.00 0.00 0.00 42 1016.3
20260830203324 94 262 1.0 6.0 0.00 0.00 0.00 41 1016.5
20260830202840 95 133 2.0 6.0 0.00 0.00 0.00 41 1016.6
20260830202315 95 213 3.0 6.0 0.00 0.00 0.00 41 1016.5
20260830201812 95 154 3.0 7.0 0.00 0.00 0.00 41 1016.5
20260830201329 95 169 1.0 5.0 0.00 0.00 0.00 41 1016.5
20260830200828 95 247 1.0 6.0 0.00 0.00 0.00 40 1016.6
20260830200346 95 206 4.0 9.0 0.00 0.00 0.00 41 1016.7
20260830195821 95 256 3.0 8.0 0.00 0.00 0.00 40 1016.6
20260830195316 95 40 3.0 8.0 0.00 0.00 0.00 42 1016.8
20260830194832 95 215 2.0 7.0 0.00 0.00 0.00 41 1016.8
20260830194327 95 233 3.0 10.0 0.00 0.00 0.00 42 1016.9
20260830193823 94 200 3.0 10.0 0.00 0.00 0.00 42 1016.9
20260830193318 94 215 2.0 8.0 0.00 0.00 0.00 41 1017.0
20260830192818 94 134 3.0 8.0 0.00 0.00 0.00 41 1017.0
20260830192313 94 207 4.0 9.0 0.00 0.00 0.00 41 1017.0
20260830191809 94 180 5.0 9.0 0.00 0.00 0.00 43 1017.1
20260830191326 94 271 3.0 9.0 0.00 0.00 0.00 43 1017.1
20260830190823 94 233 3.0 9.0 0.00 0.00 0.00 44 1017.1
20260830190339 93 242 4.0 9.0 0.00 0.00 0.00 42 1017.2
20260830185814 93 211 3.0 10.0 0.00 0.00 0.00 42 1017.2
20260830185331 93 250 5.0 10.0 0.00 0.00 0.00 43 1017.3
20260830184827 93 205 3.0 8.0 0.00 0.00 0.00 42 1017.4
20260830184327 93 241 4.0 11.0 0.00 0.00 0.00 42 1017.5
20260830183823 93 202 3.0 11.0 0.00 0.00 0.00 43 1017.4
20260830183319 92 239 4.0 9.0 0.00 0.00 0.00 43 1017.6
20260830182816 92 259 5.0 9.0 0.00 0.00 0.00 42 1017.8
20260830182312 92 211 3.0 7.0 0.00 0.00 0.00 46 1017.6
20260830181849 91 237 2.0 8.0 0.00 0.00 0.00 44 1017.7
20260830181345 92 222 3.0 6.0 0.00 0.00 0.00 46 1017.8
20260830180820 92 183 3.0 9.0 0.00 0.00 0.00 46 1017.9
20260830180321 92 242 3.0 8.0 0.00 0.00 0.00 46 1017.9
20260830175837 91 192 2.0 8.0 0.00 0.00 0.00 48 1018.1
20260830175311 90 232 3.0 8.0 0.00 0.00 0.00 46 1018.2
20260830174828 90 221 4.0 8.0 0.00 0.00 0.00 47 1018.2
20260830174325 90 215 3.0 10.0 0.00 0.00 0.00 47 1018.2
20260830173841 89 251 5.0 10.0 0.00 0.00 0.00 47 1018.3
20260830173336 90 245 4.0 9.0 0.00 0.00 0.00 46 1018.4
20260830172811 89 183 4.0 9.0 0.00 0.00 0.00 47 1018.4
20260830172327 89 227 3.0 11.0 0.00 0.00 0.00 48 1018.5
20260830171828 89 215 4.0 11.0 0.00 0.00 0.00 49 1018.5
20260830171323 89 186 2.0 9.0 0.00 0.00 0.00 48 1018.5
20260830170820 88 219 3.0 9.0 0.00 0.00 0.00 50 1018.5
20260830170316 88 195 4.0 9.0 0.00 0.00 0.00 51 1018.6
20260830165811 87 229 3.0 7.0 0.00 0.00 0.00 53 1018.7
20260830165328 87 173 2.0 7.0 0.00 0.00 0.00 53 1018.7
20260830164824 86 267 3.0 7.0 0.00 0.00 0.00 53 1018.8
20260830164320 86 267 1.0 6.0 0.00 0.00 0.00 53 1018.8
20260830163821 85 182 2.0 7.0 0.00 0.00 0.00 53 1018.9
20260830163316 85 146 3.0 6.0 0.00 0.00 0.00 54 1018.9
20260830162813 85 244 2.0 8.0 0.00 0.00 0.00 54 1018.9
20260830162327 84 205 4.0 8.0 0.00 0.00 0.00 54 1019.0
20260830161823 85 225 4.0 8.0 0.00 0.00 0.00 53 1018.9
20260830161339 85 200 2.0 10.0 0.00 0.00 0.00 53 1018.9
20260830160814 85 229 5.0 10.0 0.00 0.00 0.00 54 1018.9
20260830160311 85 189 3.0 8.0 0.00 0.00 0.00 52 1018.9
20260830155811 85 263 4.0 7.0 0.00 0.00 0.00 53 1018.9
20260830155327 85 234 2.0 7.0 0.00 0.00 0.00 53 1018.9
20260830154823 84 221 3.0 10.0 0.00 0.00 0.00 54 1018.8
20260830154341 83 236 5.0 10.0 0.00 0.00 0.00 55 1018.8
20260830153816 83 168 3.0 7.0 0.00 0.00 0.00 54 1018.8
20260830153311 83 237 3.0 9.0 0.00 0.00 0.00 59 1018.8
20260830152827 83 206 2.0 8.0 0.00 0.00 0.00 57 1018.8
20260830152343 82 242 5.0 8.0 0.00 0.00 0.00 58 1018.8
20260830151819 82 225 3.0 7.0 0.00 0.00 0.00 57 1018.7
20260830151320 81 213 4.0 7.0 0.00 0.00 0.00 59 1018.7
20260830150816 80 214 3.0 8.0 0.00 0.00 0.00 59 1018.8
20260830150313 80 225 3.0 8.0 0.00 0.00 0.00 59 1018.6
20260830145828 80 240 4.0 8.0 0.00 0.00 0.00 59 1018.6
20260830145324 80 206 2.0 7.0 0.00 0.00 0.00 60 1018.6
20260830144820 79 197 3.0 8.0 0.00 0.00 0.00 59 1018.7
20260830144316 79 253 2.0 8.0 0.00 0.00 0.00 59 1018.7
20260830143815 79 237 3.0 7.0 0.00 0.00 0.00 60 1018.7
20260830143310 78 234 2.0 7.0 0.00 0.00 0.00 60 1018.7
20260830142847 78 219 3.0 6.0 0.00 0.00 0.00 61 1018.6
20260830142322 78 126 2.0 6.0 0.00 0.00 0.00 61 1018.6
20260830141839 77 222 2.0 7.0 0.00 0.00 0.00 61 1018.6
20260830141315 77 274 3.0 7.0 0.00 0.00 0.00 61 1018.6
20260830140811 77 142 2.0 5.0 0.00 0.00 0.00 61 1018.6
20260830140348 76 107 1.0 6.0 0.00 0.00 0.00 64 1018.7
20260830135824 76 205 1.0 6.0 0.00 0.00 0.00 62 1018.7
20260830135323 76 225 3.0 6.0 0.00 0.00 0.00 62 1018.7
20260830134820 76 148 2.0 6.0 0.00 0.00 0.00 62 1018.7
20260830134316 76 178 3.0 6.0 0.00 0.00 0.00 62 1018.8
20260830133813 75 144 2.0 5.0 0.00 0.00 0.00 62 1018.9
20260830133309 75 140 2.0 5.0 0.00 0.00 0.00 63 1018.9
20260830132825 74 202 3.0 5.0 0.00 0.00 0.00 63 1018.9
20260830132321 74 163 2.0 4.0 0.00 0.00 0.00 64 1018.8
20260830131821 74 121 1.0 5.0 0.00 0.00 0.00 65 1018.7
20260830131339 73 200 1.0 6.0 0.00 0.00 0.00 67 1018.7
20260830130834 73 227 1.0 6.0 0.00 0.00 0.00 67 1018.7
20260830130309 72 123 1.0 2.0 0.00 0.00 0.00 69 1018.6
20260830125825 71 107 0.0 2.0 0.00 0.00 0.00 70 1018.6
20260830125341 70 107 0.0 2.0 0.00 0.00 0.00 70 1018.6
20260830124817 70 107 1.0 2.0 0.00 0.00 0.00 70 1018.5
20260830124313 70 113 0.0 2.0 0.00 0.00 0.00 71 1018.6
20260830123813 69 89 0.0 2.0 0.00 0.00 0.00 71 1018.6
20260830123327 69 148 1.0 2.0 0.00 0.00 0.00 71 1018.6
20260830122843 69 148 0.0 1.0 0.00 0.00 0.00 72 1018.6
20260830122339 69 131 0.0 2.0 0.00 0.00 0.00 72 1018.6
20260830121835 69 136 0.0 2.0 0.00 0.00 0.00 72 1018.6
20260830121311 69 136 0.0 2.0 0.00 0.00 0.00 72 1018.6
20260830120827 68 136 0.0 1.0 0.00 0.00 0.00 73 1018.5
20260830120323 68 149 0.0 2.0 0.00 0.00 0.00 73 1018.5
20260830115838 68 149 0.0 2.0 0.00 0.00 0.00 74 1018.4
20260830115314 68 149 0.0 2.0 0.00 0.00 0.00 74 1018.3
20260830114814 67 174 0.0 0.0 0.00 0.00 0.00 75 1018.3
20260830114310 67 174 0.0 0.0 0.00 0.00 0.00 76 1018.3
20260830113826 67 173 0.0 0.0 0.00 0.00 0.00 76 1018.3
20260830113321 67 173 0.0 2.0 0.00 0.00 0.00 75 1018.3
20260830112818 68 173 0.0 2.0 0.00 0.00 0.00 73 1018.3
20260830112315 69 173 0.0 2.0 0.00 0.00 0.00 72 1018.3
20260830111811 69 173 0.0 2.0 0.00 0.00 0.00 72 1018.3
20260830111347 69 173 0.0 0.0 0.00 0.00 0.00 72 1018.3
20260830110821 69 173 0.0 0.0 0.00 0.00 0.00 72 1018.3
20260830110322 70 173 0.0 2.0 0.00 0.00 0.00 70 1018.3
20260830105817 70 173 0.0 2.0 0.00 0.00 0.00 70 1018.3
20260830105313 70 173 0.0 3.0 0.00 0.00 0.00 70 1018.3
20260830104809 70 205 0.0 3.0 0.00 0.00 0.00 70 1018.2
20260830104347 70 147 1.0 3.0 0.00 0.00 0.00 70 1018.3
20260830103821 70 142 0.0 2.0 0.00 0.00 0.00 70 1018.2
20260830103317 70 146 0.0 2.0 0.00 0.00 0.00 71 1018.1
20260830102818 70 150 0.0 2.0 0.00 0.00 0.00 71 1018.1
20260830102314 70 125 0.0 2.0 0.00 0.00 0.00 71 1018.1
20260830101810 70 175 0.0 3.0 0.00 0.00 0.00 71 1018.1
20260830101326 70 118 1.0 3.0 0.00 0.00 0.00 71 1018.1
20260830100841 70 93 1.0 2.0 0.00 0.00 0.00 71 1018.1
20260830100316 70 168 1.0 2.0 0.00 0.00 0.00 71 1018.1
20260830095811 70 182 0.0 2.0 0.00 0.00 0.00 71 1018.1
20260830095327 70 172 1.0 3.0 0.00 0.00 0.00 71 1018.1
20260830094843 70 159 0.0 3.0 0.00 0.00 0.00 71 1018.2
20260830094323 70 153 0.0 3.0 0.00 0.00 0.00 71 1018.2
20260830093818 70 177 0.0 2.0 0.00 0.00 0.00 70 1018.2
20260830093314 70 232 0.0 3.0 0.00 0.00 0.00 69 1018.2
20260830092810 71 139 1.0 3.0 0.00 0.00 0.00 69 1018.2
20260830092326 71 174 1.0 7.0 0.00 0.00 0.00 68 1018.2
20260830091824 71 215 1.0 7.0 0.00 0.00 0.00 68 1018.3
20260830091319 71 125 1.0 5.0 0.00 0.00 0.00 68 1018.3
20260830090835 71 151 0.0 3.0 0.00 0.00 0.00 68 1018.2
20260830090313 71 180 2.0 4.0 0.00 0.00 0.00 68 1018.2
20260830085828 71 184 1.0 4.0 0.00 0.00 0.00 68 1018.3
20260830085324 71 225 1.0 4.0 0.00 0.00 0.00 68 1018.3
20260830084820 71 173 2.0 4.0 0.00 0.00 0.00 68 1018.2
20260830084317 71 173 1.0 5.0 0.00 0.00 0.00 68 1018.2
20260830083812 71 104 1.0 3.0 0.00 0.00 0.00 68 1018.2
20260830083348 71 207 1.0 3.0 0.00 0.00 0.00 68 1018.3
20260830082823 71 204 1.0 3.0 0.00 0.00 0.00 68 1018.2
20260830082323 71 201 0.0 3.0 0.00 0.00 0.00 68 1018.2
20260830081819 71 258 1.0 3.0 0.00 0.00 0.00 68 1018.2
20260830081316 71 213 1.0 3.0 0.00 0.00 0.00 68 1018.1
20260830080813 71 183 1.0 4.0 0.00 0.00 0.00 68 1018.1
20260830080309 71 229 1.0 3.0 0.00 0.00 0.00 69 1018.1
20260830075846 70 138 1.0 3.0 0.00 0.00 0.00 70 1018.0
20260830075341 70 199 0.0 2.0 0.00 0.00 0.00 70 1018.0
20260830074816 70 220 0.0 2.0 0.00 0.00 0.00 70 1018.0
20260830074317 70 220 0.0 2.0 0.00 0.00 0.00 70 1018.0
20260830073834 70 235 0.0 2.0 0.00 0.00 0.00 71 1018.0
20260830073310 70 235 0.0 1.0 0.00 0.00 0.00 71 1018.0
20260830072826 70 235 0.0 2.0 0.00 0.00 0.00 70 1018.0
20260830072323 70 235 0.0 2.0 0.00 0.00 0.00 70 1018.0
20260830071819 70 142 0.0 2.0 0.00 0.00 0.00 69 1018.0
20260830071315 70 142 0.0 1.0 0.00 0.00 0.00 70 1018.0
20260830070811 71 142 0.0 2.0 0.00 0.00 0.00 69 1018.0
20260830070311 71 143 0.0 2.0 0.00 0.00 0.00 69 1018.1
20260830065826 71 143 0.0 2.0 0.00 0.00 0.00 68 1018.1
20260830065323 71 143 0.0 2.0 0.00 0.00 0.00 68 1018.2
20260830064819 71 219 0.0 2.0 0.00 0.00 0.00 68 1018.2
20260830064336 71 219 0.0 2.0 0.00 0.00 0.00 68 1018.2
20260830063810 71 219 0.0 2.0 0.00 0.00 0.00 68 1018.2
20260830063326 71 219 0.0 2.0 0.00 0.00 0.00 67 1018.3
20260830062822 71 219 0.0 2.0 0.00 0.00 0.00 67 1018.2
20260830062322 71 219 0.0 2.0 0.00 0.00 0.00 67 1018.2
20260830061817 71 146 0.0 2.0 0.00 0.00 0.00 68 1018.1
20260830061314 71 121 0.0 2.0 0.00 0.00 0.00 67 1018.1
20260830060810 71 121 0.0 2.0 0.00 0.00 0.00 67 1018.2
20260830060327 71 121 0.0 2.0 0.00 0.00 0.00 67 1018.3
20260830055822 71 119 0.0 2.0 0.00 0.00 0.00 67 1018.2
20260830055318 71 119 0.0 2.0 0.00 0.00 0.00 67 1018.1
20260830054814 70 103 0.0 2.0 0.00 0.00 0.00 68 1018.1
20260830054314 70 103 0.0 2.0 0.00 0.00 0.00 68 1018.2
20260830053810 70 103 0.0 1.0 0.00 0.00 0.00 67 1018.2
20260830053326 71 103 0.0 2.0 0.00 0.00 0.00 67 1018.2
20260830052822 71 103 0.0 2.0 0.00 0.00 0.00 67 1018.1
20260830052317 71 103 1.0 2.0 0.00 0.00 0.00 66 1018.2
20260830051813 72 169 0.0 2.0 0.00 0.00 0.00 65 1018.2
20260830051310 72 169 0.0 2.0 0.00 0.00 0.00 64 1018.2
20260830050826 72 169 0.0 2.0 0.00 0.00 0.00 64 1018.2
20260830050326 72 53 0.0 3.0 0.00 0.00 0.00 64 1018.2
20260830045822 73 87 0.0 3.0 0.00 0.00 0.00 63 1018.2
20260830045319 73 101 1.0 3.0 0.00 0.00 0.00 63 1018.3
20260830044815 73 98 0.0 2.0 0.00 0.00 0.00 63 1018.2
20260830044311 73 153 0.0 2.0 0.00 0.00 0.00 61 1018.1
20260830043827 74 153 0.0 2.0 0.00 0.00 0.00 61 1018.1
20260830043323 74 152 0.0 2.0 0.00 0.00 0.00 61 1018.1
20260830042824 75 152 0.0 2.0 0.00 0.00 0.00 59 1018.0
20260830042320 75 172 0.0 2.0 0.00 0.00 0.00 59 1018.0
20260830041837 75 171 0.0 2.0 0.00 0.00 0.00 58 1018.0
20260830041312 75 171 0.0 2.0 0.00 0.00 0.00 58 1018.1
20260830040848 75 170 0.0 2.0 0.00 0.00 0.00 58 1018.1
20260830040323 75 170 0.0 2.0 0.00 0.00 0.00 58 1018.1
20260830035819 75 170 0.0 2.0 0.00 0.00 0.00 59 1018.1
20260830035335 75 102 0.0 2.0 0.00 0.00 0.00 59 1018.2
20260830034810 75 190 0.0 2.0 0.00 0.00 0.00 60 1018.2
20260830034310 75 190 0.0 2.0 0.00 0.00 0.00 59 1018.1
20260830033826 75 190 0.0 2.0 0.00 0.00 0.00 60 1018.2
20260830033322 75 190 0.0 2.0 0.00 0.00 0.00 60 1018.3
20260830032820 75 119 0.0 2.0 0.00 0.00 0.00 59 1018.2
20260830032316 75 119 0.0 2.0 0.00 0.00 0.00 59 1018.2
20260830031812 74 119 0.0 0.0 0.00 0.00 0.00 61 1018.2
20260830031328 74 119 0.0 2.0 0.00 0.00 0.00 62 1018.2
20260830030828 75 120 0.0 2.0 0.00 0.00 0.00 61 1018.1
20260830030323 75 119 0.0 2.0 0.00 0.00 0.00 61 1018.1
20260830025819 75 119 0.0 2.0 0.00 0.00 0.00 59 1018.2
20260830025315 75 119 0.0 2.0 0.00 0.00 0.00 60 1018.2
20260830024812 75 119 0.0 2.0 0.00 0.00 0.00 60 1018.2
20260830024327 76 120 0.0 2.0 0.00 0.00 0.00 61 1018.2